Flag for Switzerland Weather past 2 weeks in Altstätten, St. Gallen, Switzerland

Now
59 °F

Light rain. Partly sunny.


Feels Like: 60 °F
Forecast: 52 / 68 °F
Wind: 3 mph from Northeast

Location: Saint Gallen-Altenrhein

Current Time: May 3, 2015 at 2:06:20 PM

Latest Report: May 3, 2015 at 1:20 PM


Visibility: N/A

Pressure: 29.83 "Hg

Humidity: 94%

Dew point: 57 °F

Location of AltstättenLocation

Historic Weather in Altstätten — Graph

°F

Altstätten temperature yesterday

Maximum temperature yesterday: 63 °F (at 3:20 PM)
Minimum temperature yesterday: 52 °F (at 2:50 AM)
Average temperature yesterday: 57 °F

Past Weeks' High & Low Weather Summary

 TemperatureHumidityPressure
High72 °F (Apr 22, 4:20 PM)100% (Apr 26, 12:20 AM)30.36 "Hg (Apr 26, 12:20 AM)
Low32 °F (Apr 19, 6:50 AM)17% (Apr 22, 3:20 PM)29.47 "Hg (Apr 27, 5:20 PM)
Average52 °F71%29.98 "Hg
* Reported Apr 18 12:20 PM — May 3 12:50 PM, Altstätten, Weather by CustomWeather, © 2015

Note: Actual official high and low records may vary slightly from our data, if they occured in-between our weather recording intervals... More about our weather records

Advertising

Altstätten weather history for previous 24 hours

 ConditionsComfort  
Time TempWeatherWind HumidityBarometerVisibility
12:50 PM
Sun, May 3
59 °FScattered showers. Partly sunny.1 mph94%29.83 "HgN/A
12:20 PM59 °FScattered showers. Partly sunny.1 mph94%29.83 "HgN/A
11:50 AM57 °FScattered showers. Partly sunny.3 mph94%29.83 "HgN/A
11:20 AM59 °FLight rain. Partly sunny.3 mph94%29.83 "HgN/A
10:50 AM57 °FLight rain. Partly sunny.5 mph94%29.83 "HgN/A
10:20 AM57 °FLight rain. Partly sunny.3 mph94%29.83 "HgN/A
9:50 AM57 °FLight rain. Partly sunny.3 mph94%29.83 "HgN/A
9:20 AM54 °FLight rain. Partly sunny.1 mph100%29.83 "HgN/A
8:50 AM54 °FLight rain. Broken clouds.2 mph100%29.83 "HgN/A
8:20 AM54 °FLight rain. Overcast.1 mph94%29.80 "HgN/A
7:50 AM52 °FLight rain. Partly sunny.2 mph100%29.80 "HgN/A
7:20 AM52 °FLight rain. Low clouds.5 mph100%29.80 "HgN/A
6:50 AM52 °FLight rain. Passing clouds.3 mph100%29.80 "HgN/A
6:20 AM52 °FLight rain. Low clouds.5 mph100%29.80 "HgN/A
5:50 AM52 °FLight rain. Low clouds.3 mph100%29.77 "HgN/A
5:20 AM52 °FLight rain. Mostly cloudy.2 mph100%29.80 "HgN/A
4:20 AM52 °FLight rain. Passing clouds.8 mph100%29.80 "HgN/A
3:50 AM52 °FLight rain. Partly cloudy.6 mph100%29.80 "HgN/A
3:20 AM54 °FLight rain. Overcast.3 mph94%29.80 "HgN/A
2:50 AM54 °FLight rain. Overcast.10 mph94%29.77 "HgN/A
2:20 AM52 °FLight rain. Overcast.14 mph94%29.80 "HgN/A
1:50 AM52 °FLight rain. Overcast.14 mph94%29.83 "HgN/A
1:20 AM52 °FLight rain. Overcast.10 mph100%29.86 "Hg6 mi
12:50 AM52 °FLight rain. Mostly cloudy.5 mph100%29.89 "HgN/A
12:20 AM54 °FLight rain. Partly cloudy.5 mph94%29.89 "HgN/A
11:50 PM
Sat, May 2
54 °FLight rain. Overcast.5 mph94%29.89 "HgN/A
11:20 PM54 °FLight rain. Overcast.5 mph100%29.89 "HgN/A
10:50 PM54 °FLight rain. Mostly cloudy.5 mph100%29.89 "HgN/A
10:20 PM54 °FLight rain. Overcast.1 mph100%29.89 "HgN/A
9:50 PM55 °FLight rain. Partly cloudy.8 mph94%29.89 "Hg6 mi
9:20 PM55 °FLight rain. Overcast.7 mph94%29.89 "HgN/A
8:50 PM55 °FLight rain. Overcast.3 mph94%29.89 "HgN/A
8:20 PM57 °FRain. Partly sunny.3 mph88%29.89 "HgN/A
7:50 PM59 °FPartly sunny.1 mph82%29.86 "HgN/A
7:20 PM59 °FBroken clouds.3 mph82%29.86 "HgN/A
6:50 PM59 °FBroken clouds.3 mph77%29.86 "HgN/A
6:20 PM61 °FBroken clouds.5 mph72%29.86 "HgN/A
5:50 PM61 °FClear.3 mph77%29.86 "HgN/A
5:20 PM61 °FBroken clouds.3 mph72%29.86 "HgN/A
4:50 PM61 °FBroken clouds.3 mph72%29.86 "HgN/A
4:20 PM63 °FScattered clouds.3 mph68%29.86 "HgN/A
3:50 PM61 °FPartly sunny.6 mph72%29.89 "HgN/A
3:20 PM63 °FBroken clouds.3 mph73%29.89 "HgN/A
2:50 PM61 °FBroken clouds.6 mph77%29.89 "HgN/A
2:20 PM61 °FBroken clouds.7 mph77%29.89 "HgN/A
Weather by CustomWeather, © 2015

See weather overviewHow to use our weather pages